Time,TemperatureF,DewpointF,PressureIn,WindDirection,WindDirectionDegrees,WindSpeedMPH,WindSpeedGustMPH,Humidity,HourlyPrecipIn,Conditions,Clouds,dailyrainin,SolarRadiationWatts/m^2,SoftwareType,DateUTC
2013-11-04 00:00:00,44.1,12.0,29.45,North,-999,-999.0,-999.0,11,0.00,,,-99.99,0.0,Linux-Irox,2013-11-04 08:00:00,
2013-11-04 00:10:00,43.9,11.8,29.45,North,-999,-999.0,-999.0,11,0.00,,,-99.99,0.0,Linux-Irox,2013-11-04 08:10:00,
2013-11-04 00:20:00,43.5,11.5,29.45,North,-999,-999.0,-999.0,11,0.00,,,-99.99,0.0,Linux-Irox,2013-11-04 08:20:00,
2013-11-04 00:30:00,43.3,11.3,29.45,North,-999,-999.0,-999.0,11,0.00,,,-99.99,0.0,Linux-Irox,2013-11-04 08:30:00,
2013-11-04 00:40:00,42.8,10.8,29.45,North,-999,-999.0,-999.0,11,0.00,,,-99.99,0.0,Linux-Irox,2013-11-04 08:40:00,
2013-11-04 00:50:00,42.6,10.2,29.45,North,-999,-999.0,-999.0,10,0.00,,,-99.99,0.0,Linux-Irox,2013-11-04 08:50:00,
2013-11-04 01:00:00,42.4,10.0,29.46,North,-999,-999.0,-999.0,10,0.00,,,-99.99,0.0,Linux-Irox,2013-11-04 09:00:00,
2013-11-04 01:10:00,42.3,9.9,29.46,North,-999,-999.0,-999.0,10,0.00,,,-99.99,0.0,Linux-Irox,2013-11-04 09:10:00,
2013-11-04 01:20:00,41.9,9.5,29.47,North,-999,-999.0,-999.0,10,0.00,,,-99.99,0.0,Linux-Irox,2013-11-04 09:20:00,
2013-11-04 01:30:00,41.5,9.1,29.47,North,-999,-999.0,-999.0,10,0.00,,,-99.99,0.0,Linux-Irox,2013-11-04 09:30:00,
2013-11-04 01:40:00,41.0,8.6,29.46,North,-999,-999.0,-999.0,10,0.00,,,-99.99,0.0,Linux-Irox,2013-11-04 09:40:00,
2013-11-04 01:50:00,40.8,8.8,29.46,North,-999,-999.0,-999.0,11,0.00,,,-99.99,0.0,Linux-Irox,2013-11-04 09:50:00,
2013-11-04 02:00:00,40.5,8.4,29.45,North,-999,-999.0,-999.0,11,0.00,,,-99.99,0.0,Linux-Irox,2013-11-04 10:00:00,
2013-11-04 02:10:00,40.5,8.4,29.45,North,-999,-999.0,-999.0,11,0.00,,,-99.99,0.0,Linux-Irox,2013-11-04 10:10:00,
2013-11-04 02:20:00,40.8,8.8,29.44,North,-999,-999.0,-999.0,11,0.00,,,-99.99,0.0,Linux-Irox,2013-11-04 10:20:00,
2013-11-04 02:30:00,41.0,8.6,29.44,North,-999,-999.0,-999.0,10,0.00,,,-99.99,0.0,Linux-Irox,2013-11-04 10:30:00,
2013-11-04 02:40:00,40.8,8.8,29.44,North,-999,-999.0,-999.0,11,0.00,,,-99.99,0.0,Linux-Irox,2013-11-04 10:40:00,
2013-11-04 02:50:00,40.5,8.4,29.44,North,-999,-999.0,-999.0,11,0.00,,,-99.99,0.0,Linux-Irox,2013-11-04 10:50:00,
2013-11-04 03:00:00,40.1,8.1,29.45,North,-999,-999.0,-999.0,11,0.00,,,-99.99,0.0,Linux-Irox,2013-11-04 11:00:00,
2013-11-04 03:10:00,40.1,8.1,29.45,North,-999,-999.0,-999.0,11,0.00,,,-99.99,0.0,Linux-Irox,2013-11-04 11:10:00,
2013-11-04 03:20:00,39.9,7.9,29.46,North,-999,-999.0,-999.0,11,0.00,,,-99.99,0.0,Linux-Irox,2013-11-04 11:20:00,
2013-11-04 03:30:00,39.6,7.5,29.46,North,-999,-999.0,-999.0,11,0.00,,,-99.99,0.0,Linux-Irox,2013-11-04 11:30:00,
2013-11-04 03:40:00,39.2,7.2,29.45,North,-999,-999.0,-999.0,11,0.00,,,-99.99,0.0,Linux-Irox,2013-11-04 11:40:00,
2013-11-04 03:50:00,39.2,7.2,29.45,North,-999,-999.0,-999.0,11,0.00,,,-99.99,0.0,Linux-Irox,2013-11-04 11:50:00,
2013-11-04 04:00:00,39.0,7.0,29.45,North,-999,-999.0,-999.0,11,0.00,,,-99.99,0.0,Linux-Irox,2013-11-04 12:00:00,
2013-11-04 04:10:00,39.2,7.2,29.45,North,-999,-999.0,-999.0,11,0.00,,,-99.99,0.0,Linux-Irox,2013-11-04 12:10:00,
2013-11-04 04:20:00,39.2,8.2,29.46,North,-999,-999.0,-999.0,14,0.00,,,-99.99,0.0,Linux-Irox,2013-11-04 12:20:00,
2013-11-04 04:30:00,39.4,8.4,29.46,North,-999,-999.0,-999.0,14,0.00,,,-99.99,0.0,Linux-Irox,2013-11-04 12:30:00,
2013-11-04 04:40:00,39.2,8.2,29.46,North,-999,-999.0,-999.0,14,0.00,,,-99.99,0.0,Linux-Irox,2013-11-04 12:40:00,
2013-11-04 04:50:00,39.6,8.6,29.46,North,-999,-999.0,-999.0,14,0.00,,,-99.99,0.0,Linux-Irox,2013-11-04 12:50:00,
2013-11-04 05:00:00,39.2,8.2,29.46,North,-999,-999.0,-999.0,14,0.00,,,-99.99,0.0,Linux-Irox,2013-11-04 13:00:00,
2013-11-04 05:10:00,39.2,8.2,29.46,North,-999,-999.0,-999.0,14,0.00,,,-99.99,0.0,Linux-Irox,2013-11-04 13:10:00,
2013-11-04 05:20:00,39.0,8.1,29.47,North,-999,-999.0,-999.0,14,0.00,,,-99.99,0.0,Linux-Irox,2013-11-04 13:20:00,
2013-11-04 05:30:00,38.8,7.9,29.47,North,-999,-999.0,-999.0,14,0.00,,,-99.99,0.0,Linux-Irox,2013-11-04 13:30:00,
2013-11-04 05:40:00,39.6,9.3,29.48,North,-999,-999.0,-999.0,16,0.00,,,-99.99,0.0,Linux-Irox,2013-11-04 13:40:00,
2013-11-04 05:50:00,40.3,11.5,29.48,North,-999,-999.0,-999.0,20,0.00,,,-99.99,0.0,Linux-Irox,2013-11-04 13:50:00,
2013-11-04 06:00:00,40.5,10.2,29.48,North,-999,-999.0,-999.0,16,0.00,,,-99.99,0.0,Linux-Irox,2013-11-04 14:00:00,
2013-11-04 06:10:00,40.1,9.9,29.48,North,-999,-999.0,-999.0,16,0.00,,,-99.99,0.0,Linux-Irox,2013-11-04 14:10:00,
2013-11-04 06:16:00,39.7,9.5,29.50,North,-999,-999.0,-999.0,16,0.00,,,-99.99,0.0,Linux-Irox,2013-11-04 14:16:00,
2013-11-04 06:20:00,39.7,9.5,29.50,North,-999,-999.0,-999.0,16,0.00,,,-99.99,0.0,Linux-Irox,2013-11-04 14:20:00,
2013-11-04 06:30:00,40.1,9.9,29.50,North,-999,-999.0,-999.0,16,0.00,,,-99.99,0.0,Linux-Irox,2013-11-04 14:30:00,
2013-11-04 06:31:00,40.1,9.9,29.50,North,-999,-999.0,-999.0,16,0.00,,,-99.99,0.0,Linux-Irox,2013-11-04 14:31:00,
2013-11-04 06:40:00,40.6,9.7,29.50,North,-999,-999.0,-999.0,14,0.00,,,-99.99,0.0,Linux-Irox,2013-11-04 14:40:00,
2013-11-04 06:47:00,41.2,9.9,29.50,North,-999,-999.0,-999.0,13,0.00,,,-99.99,0.0,Linux-Irox,2013-11-04 14:47:00,
2013-11-04 06:50:00,41.4,10.0,29.50,North,-999,-999.0,-999.0,13,0.00,,,-99.99,0.0,Linux-Irox,2013-11-04 14:50:00,
2013-11-04 07:00:00,41.9,10.6,29.52,North,-999,-999.0,-999.0,13,0.00,,,-99.99,0.0,Linux-Irox,2013-11-04 15:00:00,
2013-11-04 07:01:00,42.1,10.8,29.52,North,-999,-999.0,-999.0,13,0.00,,,-99.99,0.0,Linux-Irox,2013-11-04 15:01:00,
2013-11-04 07:10:00,42.6,11.3,29.52,North,-999,-999.0,-999.0,13,0.00,,,-99.99,0.0,Linux-Irox,2013-11-04 15:10:00,
2013-11-04 07:16:00,43.5,12.2,29.52,North,-999,-999.0,-999.0,13,0.00,,,-99.99,0.0,Linux-Irox,2013-11-04 15:16:00,
2013-11-04 07:20:00,44.1,12.0,29.52,North,-999,-999.0,-999.0,11,0.00,,,-99.99,0.0,Linux-Irox,2013-11-04 15:20:00,
2013-11-04 07:30:00,46.0,14.0,29.52,North,-999,-999.0,-999.0,11,0.00,,,-99.99,0.0,Linux-Irox,2013-11-04 15:30:00,
2013-11-04 07:31:00,46.6,14.2,29.52,North,-999,-999.0,-999.0,10,0.00,,,-99.99,0.0,Linux-Irox,2013-11-04 15:31:00,
2013-11-04 07:40:00,47.3,14.9,29.51,North,-999,-999.0,-999.0,10,0.00,,,-99.99,0.0,Linux-Irox,2013-11-04 15:40:00,
2013-11-04 07:46:00,47.8,15.4,29.51,North,-999,-999.0,-999.0,10,0.00,,,-99.99,0.0,Linux-Irox,2013-11-04 15:46:00,
2013-11-04 07:50:00,48.0,15.6,29.51,North,-999,-999.0,-999.0,10,0.00,,,-99.99,0.0,Linux-Irox,2013-11-04 15:50:00,
2013-11-04 08:00:00,48.4,16.0,29.52,North,-999,-999.0,-999.0,10,0.00,,,-99.99,0.0,Linux-Irox,2013-11-04 16:00:00,
2013-11-04 08:01:00,48.4,16.0,29.52,North,-999,-999.0,-999.0,10,0.00,,,-99.99,0.0,Linux-Irox,2013-11-04 16:01:00,
2013-11-04 08:09:00,48.4,16.0,29.52,North,-999,-999.0,-999.0,10,0.00,,,-99.99,0.0,Linux-Irox,2013-11-04 16:09:00,
2013-11-04 08:10:00,48.7,16.3,29.52,North,-999,-999.0,-999.0,10,0.00,,,-99.99,0.0,Linux-Irox,2013-11-04 16:10:00,
2013-11-04 08:16:00,49.8,17.4,29.53,North,-999,-999.0,-999.0,10,0.00,,,-99.99,0.0,Linux-Irox,2013-11-04 16:16:00,
2013-11-04 08:20:00,50.4,17.6,29.53,North,-999,-999.0,-999.0,9,0.00,,,-99.99,0.0,Linux-Irox,2013-11-04 16:20:00,
2013-11-04 08:30:00,51.8,18.7,29.53,North,-999,-999.0,-999.0,8,0.00,,,-99.99,0.0,Linux-Irox,2013-11-04 16:30:00,
2013-11-04 08:31:00,51.8,18.7,29.53,North,-999,-999.0,-999.0,8,0.00,,,-99.99,0.0,Linux-Irox,2013-11-04 16:31:00,
2013-11-04 08:40:00,52.7,18.5,29.54,North,-999,-999.0,-999.0,5,0.00,,,-99.99,0.0,Linux-Irox,2013-11-04 16:40:00,
2013-11-04 08:46:00,54.5,20.3,29.54,North,-999,-999.0,-999.0,5,0.00,,,-99.99,0.0,Linux-Irox,2013-11-04 16:46:00,
2013-11-04 08:50:00,55.6,21.4,29.54,North,-999,-999.0,-999.0,5,0.00,,,-99.99,0.0,Linux-Irox,2013-11-04 16:50:00,
2013-11-04 09:00:00,56.3,22.1,29.54,North,-999,-999.0,-999.0,5,0.00,,,-99.99,0.0,Linux-Irox,2013-11-04 17:00:00,
2013-11-04 09:01:00,56.3,22.1,29.54,North,-999,-999.0,-999.0,5,0.00,,,-99.99,0.0,Linux-Irox,2013-11-04 17:01:00,
2013-11-04 09:10:00,57.4,23.2,29.54,North,-999,-999.0,-999.0,5,0.00,,,-99.99,0.0,Linux-Irox,2013-11-04 17:10:00,
2013-11-04 09:16:00,58.3,24.1,29.55,North,-999,-999.0,-999.0,5,0.00,,,-99.99,0.0,Linux-Irox,2013-11-04 17:16:00,
2013-11-04 09:20:00,58.8,24.6,29.55,North,-999,-999.0,-999.0,5,0.00,,,-99.99,0.0,Linux-Irox,2013-11-04 17:20:00,
2013-11-04 09:30:00,59.4,25.2,29.55,North,-999,-999.0,-999.0,5,0.00,,,-99.99,0.0,Linux-Irox,2013-11-04 17:30:00,
2013-11-04 09:31:00,59.5,25.3,29.55,North,-999,-999.0,-999.0,5,0.00,,,-99.99,0.0,Linux-Irox,2013-11-04 17:31:00,
2013-11-04 09:40:00,61.0,26.8,29.54,North,-999,-999.0,-999.0,5,0.00,,,-99.99,0.0,Linux-Irox,2013-11-04 17:40:00,
2013-11-04 09:46:00,60.6,26.4,29.54,North,-999,-999.0,-999.0,5,0.00,,,-99.99,0.0,Linux-Irox,2013-11-04 17:46:00,
2013-11-04 09:50:00,60.8,26.6,29.54,North,-999,-999.0,-999.0,5,0.00,,,-99.99,0.0,Linux-Irox,2013-11-04 17:50:00,
2013-11-04 10:00:00,60.8,26.6,29.54,North,-999,-999.0,-999.0,5,0.00,,,-99.99,0.0,Linux-Irox,2013-11-04 18:00:00,
2013-11-04 10:01:00,61.5,27.3,29.54,North,-999,-999.0,-999.0,5,0.00,,,-99.99,0.0,Linux-Irox,2013-11-04 18:01:00,
2013-11-04 10:10:00,61.7,27.5,29.54,North,-999,-999.0,-999.0,5,0.00,,,-99.99,0.0,Linux-Irox,2013-11-04 18:10:00,
2013-11-04 10:16:00,61.0,26.8,29.55,North,-999,-999.0,-999.0,5,0.00,,,-99.99,0.0,Linux-Irox,2013-11-04 18:16:00,
2013-11-04 10:20:00,61.2,27.0,29.55,North,-999,-999.0,-999.0,5,0.00,,,-99.99,0.0,Linux-Irox,2013-11-04 18:20:00,
2013-11-04 10:30:00,62.1,27.9,29.55,North,-999,-999.0,-999.0,5,0.00,,,-99.99,0.0,Linux-Irox,2013-11-04 18:30:00,
2013-11-04 10:31:00,62.4,28.2,29.55,North,-999,-999.0,-999.0,5,0.00,,,-99.99,0.0,Linux-Irox,2013-11-04 18:31:00,
2013-11-04 10:40:00,62.6,28.4,29.54,North,-999,-999.0,-999.0,5,0.00,,,-99.99,0.0,Linux-Irox,2013-11-04 18:40:00,
2013-11-04 10:46:00,62.8,28.6,29.54,North,-999,-999.0,-999.0,5,0.00,,,-99.99,0.0,Linux-Irox,2013-11-04 18:46:00,
2013-11-04 10:50:00,61.7,27.5,29.54,North,-999,-999.0,-999.0,5,0.00,,,-99.99,0.0,Linux-Irox,2013-11-04 18:50:00,
2013-11-04 11:00:00,62.4,28.2,29.54,North,-999,-999.0,-999.0,5,0.00,,,-99.99,0.0,Linux-Irox,2013-11-04 19:00:00,
2013-11-04 11:01:00,62.8,28.6,29.54,North,-999,-999.0,-999.0,5,0.00,,,-99.99,0.0,Linux-Irox,2013-11-04 19:01:00,
2013-11-04 11:10:00,63.0,28.8,29.54,North,-999,-999.0,-999.0,5,0.00,,,-99.99,0.0,Linux-Irox,2013-11-04 19:10:00,
2013-11-04 11:16:00,62.8,28.6,29.54,North,-999,-999.0,-999.0,5,0.00,,,-99.99,0.0,Linux-Irox,2013-11-04 19:16:00,
2013-11-04 11:20:00,63.5,29.3,29.54,North,-999,-999.0,-999.0,5,0.00,,,-99.99,0.0,Linux-Irox,2013-11-04 19:20:00,
2013-11-04 11:30:00,63.5,29.3,29.54,North,-999,-999.0,-999.0,5,0.00,,,-99.99,0.0,Linux-Irox,2013-11-04 19:30:00,
2013-11-04 11:31:00,63.9,29.7,29.54,North,-999,-999.0,-999.0,5,0.00,,,-99.99,0.0,Linux-Irox,2013-11-04 19:31:00,
2013-11-04 11:40:00,64.0,29.8,29.53,North,-999,-999.0,-999.0,5,0.00,,,-99.99,0.0,Linux-Irox,2013-11-04 19:40:00,
2013-11-04 11:46:00,64.6,30.4,29.53,North,-999,-999.0,-999.0,5,0.00,,,-99.99,0.0,Linux-Irox,2013-11-04 19:46:00,
2013-11-04 11:50:00,64.4,30.2,29.53,North,-999,-999.0,-999.0,5,0.00,,,-99.99,0.0,Linux-Irox,2013-11-04 19:50:00,
2013-11-04 12:00:00,64.4,30.2,29.53,North,-999,-999.0,-999.0,5,0.00,,,-99.99,0.0,Linux-Irox,2013-11-04 20:00:00,
2013-11-04 12:01:00,64.4,30.2,29.53,North,-999,-999.0,-999.0,5,0.00,,,-99.99,0.0,Linux-Irox,2013-11-04 20:01:00,
2013-11-04 12:10:00,64.4,30.2,29.53,North,-999,-999.0,-999.0,5,0.00,,,-99.99,0.0,Linux-Irox,2013-11-04 20:10:00,
2013-11-04 12:16:00,65.7,31.5,29.52,North,-999,-999.0,-999.0,5,0.00,,,-99.99,0.0,Linux-Irox,2013-11-04 20:16:00,
2013-11-04 12:20:00,64.9,30.7,29.52,North,-999,-999.0,-999.0,5,0.00,,,-99.99,0.0,Linux-Irox,2013-11-04 20:20:00,
2013-11-04 12:30:00,64.6,30.4,29.52,North,-999,-999.0,-999.0,5,0.00,,,-99.99,0.0,Linux-Irox,2013-11-04 20:30:00,
2013-11-04 12:31:00,64.8,30.6,29.52,North,-999,-999.0,-999.0,5,0.00,,,-99.99,0.0,Linux-Irox,2013-11-04 20:31:00,
2013-11-04 12:40:00,64.4,30.2,29.52,North,-999,-999.0,-999.0,5,0.00,,,-99.99,0.0,Linux-Irox,2013-11-04 20:40:00,
2013-11-04 12:46:00,64.8,30.6,29.52,North,-999,-999.0,-999.0,5,0.00,,,-99.99,0.0,Linux-Irox,2013-11-04 20:46:00,
2013-11-04 12:50:00,65.3,31.1,29.52,North,-999,-999.0,-999.0,5,0.00,,,-99.99,0.0,Linux-Irox,2013-11-04 20:50:00,
2013-11-04 13:00:00,64.8,30.6,29.52,North,-999,-999.0,-999.0,5,0.00,,,-99.99,0.0,Linux-Irox,2013-11-04 21:00:00,
2013-11-04 13:01:00,64.9,30.7,29.52,North,-999,-999.0,-999.0,5,0.00,,,-99.99,0.0,Linux-Irox,2013-11-04 21:01:00,
2013-11-04 13:10:00,65.5,31.3,29.52,North,-999,-999.0,-999.0,5,0.00,,,-99.99,0.0,Linux-Irox,2013-11-04 21:10:00,
2013-11-04 13:16:00,65.7,31.5,29.51,North,-999,-999.0,-999.0,5,0.00,,,-99.99,0.0,Linux-Irox,2013-11-04 21:16:00,
2013-11-04 13:20:00,65.7,31.5,29.51,North,-999,-999.0,-999.0,5,0.00,,,-99.99,0.0,Linux-Irox,2013-11-04 21:20:00,
2013-11-04 13:30:00,65.7,31.5,29.51,North,-999,-999.0,-999.0,5,0.00,,,-99.99,0.0,Linux-Irox,2013-11-04 21:30:00,
2013-11-04 13:31:00,65.8,31.6,29.51,North,-999,-999.0,-999.0,5,0.00,,,-99.99,0.0,Linux-Irox,2013-11-04 21:31:00,
2013-11-04 13:40:00,65.1,30.9,29.50,North,-999,-999.0,-999.0,5,0.00,,,-99.99,0.0,Linux-Irox,2013-11-04 21:40:00,
2013-11-04 13:46:00,65.1,30.9,29.50,North,-999,-999.0,-999.0,5,0.00,,,-99.99,0.0,Linux-Irox,2013-11-04 21:46:00,
2013-11-04 13:50:00,66.0,31.8,29.50,North,-999,-999.0,-999.0,5,0.00,,,-99.99,0.0,Linux-Irox,2013-11-04 21:50:00,
2013-11-04 14:00:00,64.8,30.6,29.51,North,-999,-999.0,-999.0,5,0.00,,,-99.99,0.0,Linux-Irox,2013-11-04 22:00:00,
2013-11-04 14:01:00,65.5,31.3,29.51,North,-999,-999.0,-999.0,5,0.00,,,-99.99,0.0,Linux-Irox,2013-11-04 22:01:00,
2013-11-04 14:10:00,65.1,30.9,29.51,North,-999,-999.0,-999.0,5,0.00,,,-99.99,0.0,Linux-Irox,2013-11-04 22:10:00,
2013-11-04 14:16:00,64.4,30.2,29.49,North,-999,-999.0,-999.0,5,0.00,,,-99.99,0.0,Linux-Irox,2013-11-04 22:16:00,
2013-11-04 14:20:00,64.4,30.2,29.49,North,-999,-999.0,-999.0,5,0.00,,,-99.99,0.0,Linux-Irox,2013-11-04 22:20:00,
2013-11-04 14:30:00,63.9,29.7,29.49,North,-999,-999.0,-999.0,5,0.00,,,-99.99,0.0,Linux-Irox,2013-11-04 22:30:00,
2013-11-04 14:31:00,64.2,30.0,29.49,North,-999,-999.0,-999.0,5,0.00,,,-99.99,0.0,Linux-Irox,2013-11-04 22:31:00,
2013-11-04 14:40:00,63.9,29.7,29.47,North,-999,-999.0,-999.0,5,0.00,,,-99.99,0.0,Linux-Irox,2013-11-04 22:40:00,
2013-11-04 14:46:00,63.1,28.9,29.47,North,-999,-999.0,-999.0,5,0.00,,,-99.99,0.0,Linux-Irox,2013-11-04 22:46:00,
2013-11-04 14:50:00,62.6,28.4,29.47,North,-999,-999.0,-999.0,5,0.00,,,-99.99,0.0,Linux-Irox,2013-11-04 22:50:00,
2013-11-04 15:00:00,62.6,28.4,29.47,North,-999,-999.0,-999.0,5,0.00,,,-99.99,0.0,Linux-Irox,2013-11-04 23:00:00,
2013-11-04 15:01:00,62.4,28.2,29.47,North,-999,-999.0,-999.0,5,0.00,,,-99.99,0.0,Linux-Irox,2013-11-04 23:01:00,
2013-11-04 15:10:00,61.9,27.7,29.47,North,-999,-999.0,-999.0,5,0.00,,,-99.99,0.0,Linux-Irox,2013-11-04 23:10:00,
2013-11-04 15:16:00,61.5,27.3,29.50,North,-999,-999.0,-999.0,5,0.00,,,-99.99,0.0,Linux-Irox,2013-11-04 23:16:00,
2013-11-04 15:20:00,61.2,27.0,29.50,North,-999,-999.0,-999.0,5,0.00,,,-99.99,0.0,Linux-Irox,2013-11-04 23:20:00,
2013-11-04 15:30:00,61.0,26.8,29.50,North,-999,-999.0,-999.0,5,0.00,,,-99.99,0.0,Linux-Irox,2013-11-04 23:30:00,
2013-11-04 15:31:00,61.0,26.8,29.50,North,-999,-999.0,-999.0,5,0.00,,,-99.99,0.0,Linux-Irox,2013-11-04 23:31:00,
2013-11-04 15:40:00,60.8,26.6,29.51,North,-999,-999.0,-999.0,5,0.00,,,-99.99,0.0,Linux-Irox,2013-11-04 23:40:00,
2013-11-04 15:46:00,60.6,26.4,29.51,North,-999,-999.0,-999.0,5,0.00,,,-99.99,0.0,Linux-Irox,2013-11-04 23:46:00,
2013-11-04 15:50:00,60.4,26.2,29.51,North,-999,-999.0,-999.0,5,0.00,,,-99.99,0.0,Linux-Irox,2013-11-04 23:50:00,
2013-11-04 16:00:00,60.4,26.2,29.53,North,-999,-999.0,-999.0,5,0.00,,,-99.99,0.0,Linux-Irox,2013-11-05 00:00:00,
2013-11-04 16:01:00,60.3,26.1,29.53,North,-999,-999.0,-999.0,5,0.00,,,-99.99,0.0,Linux-Irox,2013-11-05 00:01:00,
2013-11-04 16:10:00,59.7,25.5,29.53,North,-999,-999.0,-999.0,5,0.00,,,-99.99,0.0,Linux-Irox,2013-11-05 00:10:00,
2013-11-04 16:16:00,59.5,25.3,29.53,North,-999,-999.0,-999.0,5,0.00,,,-99.99,0.0,Linux-Irox,2013-11-05 00:16:00,
2013-11-04 16:20:00,59.0,24.8,29.53,North,-999,-999.0,-999.0,5,0.00,,,-99.99,0.0,Linux-Irox,2013-11-05 00:20:00,
2013-11-04 16:30:00,58.3,24.1,29.53,North,-999,-999.0,-999.0,5,0.00,,,-99.99,0.0,Linux-Irox,2013-11-05 00:30:00,
2013-11-04 16:31:00,58.1,23.9,29.53,North,-999,-999.0,-999.0,5,0.00,,,-99.99,0.0,Linux-Irox,2013-11-05 00:31:00,
2013-11-04 16:40:00,57.7,23.5,29.55,North,-999,-999.0,-999.0,5,0.00,,,-99.99,0.0,Linux-Irox,2013-11-05 00:40:00,
2013-11-04 16:46:00,57.4,23.2,29.55,North,-999,-999.0,-999.0,5,0.00,,,-99.99,0.0,Linux-Irox,2013-11-05 00:46:00,
2013-11-04 16:50:00,57.0,22.8,29.55,North,-999,-999.0,-999.0,5,0.00,,,-99.99,0.0,Linux-Irox,2013-11-05 00:50:00,
2013-11-04 17:00:00,56.1,21.9,29.55,North,-999,-999.0,-999.0,5,0.00,,,-99.99,0.0,Linux-Irox,2013-11-05 01:00:00,
2013-11-04 17:01:00,56.1,21.9,29.55,North,-999,-999.0,-999.0,5,0.00,,,-99.99,0.0,Linux-Irox,2013-11-05 01:01:00,
2013-11-04 17:10:00,55.0,20.8,29.55,North,-999,-999.0,-999.0,5,0.00,,,-99.99,0.0,Linux-Irox,2013-11-05 01:10:00,
2013-11-04 17:16:00,54.1,19.9,29.56,North,-999,-999.0,-999.0,5,0.00,,,-99.99,0.0,Linux-Irox,2013-11-05 01:16:00,
2013-11-04 17:20:00,54.1,19.9,29.56,North,-999,-999.0,-999.0,5,0.00,,,-99.99,0.0,Linux-Irox,2013-11-05 01:20:00,
2013-11-04 17:30:00,53.8,19.6,29.56,North,-999,-999.0,-999.0,5,0.00,,,-99.99,0.0,Linux-Irox,2013-11-05 01:30:00,
2013-11-04 17:31:00,54.1,19.9,29.56,North,-999,-999.0,-999.0,5,0.00,,,-99.99,0.0,Linux-Irox,2013-11-05 01:31:00,
2013-11-04 17:40:00,54.7,20.5,29.56,North,-999,-999.0,-999.0,5,0.00,,,-99.99,0.0,Linux-Irox,2013-11-05 01:40:00,
2013-11-04 17:46:00,54.5,20.3,29.56,North,-999,-999.0,-999.0,5,0.00,,,-99.99,0.0,Linux-Irox,2013-11-05 01:46:00,
2013-11-04 17:50:00,54.0,19.8,29.56,North,-999,-999.0,-999.0,5,0.00,,,-99.99,0.0,Linux-Irox,2013-11-05 01:50:00,
2013-11-04 18:00:00,53.4,19.2,29.57,North,-999,-999.0,-999.0,5,0.00,,,-99.99,0.0,Linux-Irox,2013-11-05 02:00:00,
2013-11-04 18:01:00,53.2,19.0,29.57,North,-999,-999.0,-999.0,5,0.00,,,-99.99,0.0,Linux-Irox,2013-11-05 02:01:00,
2013-11-04 18:10:00,52.5,18.3,29.57,North,-999,-999.0,-999.0,5,0.00,,,-99.99,0.0,Linux-Irox,2013-11-05 02:10:00,
2013-11-04 18:16:00,51.8,17.6,29.57,North,-999,-999.0,-999.0,5,0.00,,,-99.99,0.0,Linux-Irox,2013-11-05 02:16:00,
2013-11-04 18:20:00,51.6,17.8,29.57,North,-999,-999.0,-999.0,6,0.00,,,-99.99,0.0,Linux-Irox,2013-11-05 02:20:00,
2013-11-04 18:30:00,51.3,17.4,29.57,North,-999,-999.0,-999.0,6,0.00,,,-99.99,0.0,Linux-Irox,2013-11-05 02:30:00,
2013-11-04 18:31:00,51.4,17.6,29.57,North,-999,-999.0,-999.0,6,0.00,,,-99.99,0.0,Linux-Irox,2013-11-05 02:31:00,
2013-11-04 18:40:00,53.8,19.6,29.58,North,-999,-999.0,-999.0,5,0.00,,,-99.99,0.0,Linux-Irox,2013-11-05 02:40:00,
2013-11-04 18:46:00,54.3,20.1,29.58,North,-999,-999.0,-999.0,5,0.00,,,-99.99,0.0,Linux-Irox,2013-11-05 02:46:00,
2013-11-04 18:50:00,54.1,19.9,29.58,North,-999,-999.0,-999.0,5,0.00,,,-99.99,0.0,Linux-Irox,2013-11-05 02:50:00,
2013-11-04 19:00:00,54.3,20.1,29.58,North,-999,-999.0,-999.0,5,0.00,,,-99.99,0.0,Linux-Irox,2013-11-05 03:00:00,
2013-11-04 19:01:00,54.5,20.3,29.58,North,-999,-999.0,-999.0,5,0.00,,,-99.99,0.0,Linux-Irox,2013-11-05 03:01:00,
2013-11-04 19:10:00,55.4,21.2,29.58,North,-999,-999.0,-999.0,5,0.00,,,-99.99,0.0,Linux-Irox,2013-11-05 03:10:00,
2013-11-04 19:16:00,55.2,21.0,29.58,North,-999,-999.0,-999.0,5,0.00,,,-99.99,0.0,Linux-Irox,2013-11-05 03:16:00,
2013-11-04 19:20:00,55.2,21.0,29.58,North,-999,-999.0,-999.0,5,0.00,,,-99.99,0.0,Linux-Irox,2013-11-05 03:20:00,
2013-11-04 19:30:00,54.9,20.7,29.58,North,-999,-999.0,-999.0,5,0.00,,,-99.99,0.0,Linux-Irox,2013-11-05 03:30:00,
2013-11-04 19:31:00,54.5,20.3,29.58,North,-999,-999.0,-999.0,5,0.00,,,-99.99,0.0,Linux-Irox,2013-11-05 03:31:00,
2013-11-04 19:40:00,53.8,19.6,29.59,North,-999,-999.0,-999.0,5,0.00,,,-99.99,0.0,Linux-Irox,2013-11-05 03:40:00,
2013-11-04 19:46:00,53.2,19.0,29.59,North,-999,-999.0,-999.0,5,0.00,,,-99.99,0.0,Linux-Irox,2013-11-05 03:46:00,
2013-11-04 19:50:00,53.1,18.9,29.59,North,-999,-999.0,-999.0,5,0.00,,,-99.99,0.0,Linux-Irox,2013-11-05 03:50:00,
2013-11-04 20:00:00,53.6,19.4,29.60,North,-999,-999.0,-999.0,5,0.00,,,-99.99,0.0,Linux-Irox,2013-11-05 04:00:00,
2013-11-04 20:01:00,53.6,19.4,29.60,North,-999,-999.0,-999.0,5,0.00,,,-99.99,0.0,Linux-Irox,2013-11-05 04:01:00,
2013-11-04 20:10:00,53.2,19.0,29.60,North,-999,-999.0,-999.0,5,0.00,,,-99.99,0.0,Linux-Irox,2013-11-05 04:10:00,
2013-11-04 20:16:00,52.9,18.7,29.61,North,-999,-999.0,-999.0,5,0.00,,,-99.99,0.0,Linux-Irox,2013-11-05 04:16:00,
2013-11-04 20:20:00,52.5,18.3,29.61,North,-999,-999.0,-999.0,5,0.00,,,-99.99,0.0,Linux-Irox,2013-11-05 04:20:00,
2013-11-04 20:30:00,52.5,18.3,29.61,North,-999,-999.0,-999.0,5,0.00,,,-99.99,0.0,Linux-Irox,2013-11-05 04:30:00,
2013-11-04 20:40:00,52.0,17.8,29.61,North,-999,-999.0,-999.0,5,0.00,,,-99.99,0.0,Linux-Irox,2013-11-05 04:40:00,
2013-11-04 20:50:00,51.1,17.2,29.61,North,-999,-999.0,-999.0,6,0.00,,,-99.99,0.0,Linux-Irox,2013-11-05 04:50:00,
2013-11-04 21:00:00,51.4,17.6,29.62,North,-999,-999.0,-999.0,6,0.00,,,-99.99,0.0,Linux-Irox,2013-11-05 05:00:00,
2013-11-04 21:10:00,52.2,18.0,29.62,North,-999,-999.0,-999.0,5,0.00,,,-99.99,0.0,Linux-Irox,2013-11-05 05:10:00,
2013-11-04 21:20:00,52.2,18.0,29.62,North,-999,-999.0,-999.0,5,0.00,,,-99.99,0.0,Linux-Irox,2013-11-05 05:20:00,
2013-11-04 21:30:00,52.2,18.0,29.62,North,-999,-999.0,-999.0,5,0.00,,,-99.99,0.0,Linux-Irox,2013-11-05 05:30:00,
2013-11-04 21:40:00,51.4,17.6,29.63,North,-999,-999.0,-999.0,6,0.00,,,-99.99,0.0,Linux-Irox,2013-11-05 05:40:00,
2013-11-04 21:50:00,50.5,16.7,29.63,North,-999,-999.0,-999.0,6,0.00,,,-99.99,0.0,Linux-Irox,2013-11-05 05:50:00,
2013-11-04 22:00:00,50.4,17.6,29.62,North,-999,-999.0,-999.0,9,0.00,,,-99.99,0.0,Linux-Irox,2013-11-05 06:00:00,
2013-11-04 22:10:00,50.0,17.2,29.62,North,-999,-999.0,-999.0,9,0.00,,,-99.99,0.0,Linux-Irox,2013-11-05 06:10:00,
2013-11-04 22:20:00,50.4,17.6,29.63,North,-999,-999.0,-999.0,9,0.00,,,-99.99,0.0,Linux-Irox,2013-11-05 06:20:00,
2013-11-04 22:30:00,50.4,17.6,29.63,North,-999,-999.0,-999.0,9,0.00,,,-99.99,0.0,Linux-Irox,2013-11-05 06:30:00,
2013-11-04 22:40:00,50.0,17.2,29.63,North,-999,-999.0,-999.0,9,0.00,,,-99.99,0.0,Linux-Irox,2013-11-05 06:40:00,
2013-11-04 22:50:00,50.2,17.4,29.63,North,-999,-999.0,-999.0,9,0.00,,,-99.99,0.0,Linux-Irox,2013-11-05 06:50:00,
2013-11-04 23:00:00,50.2,17.4,29.62,North,-999,-999.0,-999.0,9,0.00,,,-99.99,0.0,Linux-Irox,2013-11-05 07:00:00,
2013-11-04 23:10:00,50.7,18.0,29.62,North,-999,-999.0,-999.0,9,0.00,,,-99.99,0.0,Linux-Irox,2013-11-05 07:10:00,
2013-11-04 23:20:00,50.9,18.1,29.63,North,-999,-999.0,-999.0,9,0.00,,,-99.99,0.0,Linux-Irox,2013-11-05 07:20:00,
2013-11-04 23:30:00,50.4,17.6,29.63,North,-999,-999.0,-999.0,9,0.00,,,-99.99,0.0,Linux-Irox,2013-11-05 07:30:00,
2013-11-04 23:40:00,50.0,17.2,29.64,North,-999,-999.0,-999.0,9,0.00,,,-99.99,0.0,Linux-Irox,2013-11-05 07:40:00,
2013-11-04 23:50:00,50.5,17.8,29.64,North,-999,-999.0,-999.0,9,0.00,,,-99.99,0.0,Linux-Irox,2013-11-05 07:50:00,